Accueil
METAR-TAF:

METAR-TAF

Aéroports :

Romorantin, France

Pruniers

latitude: 47-19N, longitude: 001-41E, altitude: 85 m

Observation

Le bulletin a été fait il y a 35 minutes, à 00:00 UTC
Vent 4 kt de nord-est, variant entre nord et est/nord-est
Température 2°C
Humidité 64%
Pression 1012 hPa
Visibilité 10 km ou plus
Ciel couvert à une hauteur de 4000 ft

METAR: LFYR 240000Z AUTO 04004KT 360V070 9999 OVC040 02/M04 Q1012

Heure: 01:35 (00:35 UTC)


TAF: absent

Observations et prévisions météorologiques de plus de 4000 aéroports (messages METAR et TAF).

Les stations disponibles sont représentées par des disques jaunes et rouges sur la carte.

Passer la souris dessus pour voir le nom de la station.

Cliquer dessus pour voir les observations et prévisions météorologiques.

Pour changer de carte: cliquez sur les boutons verts avec une croix noire pour zoomer, sur le bouton vert avec un tiret pour effectuer un zoom arrière, ou sur les flèches vertes pour les cartes adjacentes.


METAR-TAF: